Weather History for Appleton, MN

Change the Weather History Date:

Monday, November 19, 2012

  Actual Average Record
Temperature  
Mean Temperature 44 °F -  
Max Temperature 57 °F 35 °F 57 °F (2012)
Min Temperature 30 °F 19 °F 5 °F (1996)
Degree Days  
Heating Degree Days 20    
Moisture  
Dew Point 35 °F    
Average Humidity 73    
Maximum Humidity 100    
Minimum Humidity 51    
Precipitation  
Precipitation 0.00 in - - ()
Sea Level Pressure  
Sea Level Pressure 30.02 in    
Wind  
Wind Speed 8 mph (NW)    
Max Wind Speed 13 mph    
Max Gust Speed -    
Visibility 10 miles    
Events      
Averages and records for this station are not official NWS values.
T = Trace of Precipitation, MM = Missing Value Source: NWS Daily Summary

Daily Weather History Graph

Daily Weather History Graph

Search for Another Location

Airport:

Trip Planner

Search our weather history database for the weather conditions in past years. The results will help you decide how hot, cold, wet, or windy it might be!

Date:

Astronomy

Nov. 19, 2012 Rise Set
Actual Time 7:28 AM CST 4:50 PM CST
Civil Twilight 6:56 AM CST 5:22 PM CST
Nautical Twilight 6:20 AM CST 5:58 PM CST
Astronomical Twilight 5:45 AM CST 6:33 PM CST
Moon 12:25 PM CST (11/19) 11:26 PM CST (11/19)
Length of Visible Light 10h 26m
Length of Day
9h 21m
Waxing Crescent, 41% of the Moon is Illuminated
Nov 19
Waxing Crescent
Nov 20
First Quarter
Nov 28
Full
Dec 6
Last Quarter
Dec 13
New

Hourly Weather History & Observations

Time (CST) Temp. Windchill Dew Point Humidity Pressure Visibility Wind Dir Wind Speed Gust Speed Precip Events Conditions
12:13 AM 44.6 °F 39.7 °F 35.6 °F 71% 29.96 in 10.0 mi SE 9.2 mph - N/A   Clear
12:33 AM 44.6 °F 39.7 °F 35.6 °F 71% 29.96 in 10.0 mi SE 9.2 mph - N/A   Clear
12:53 AM 44.6 °F 39.2 °F 35.6 °F 71% 29.95 in 10.0 mi SSE 10.4 mph - N/A   Clear
1:13 AM 44.6 °F 39.2 °F 35.6 °F 71% 29.94 in 10.0 mi SE 10.4 mph - N/A   Clear
1:33 AM 44.6 °F 39.7 °F 35.6 °F 71% 29.95 in 10.0 mi SSE 9.2 mph - N/A   Clear
1:53 AM 44.6 °F 39.7 °F 35.6 °F 71% 29.95 in 10.0 mi SSE 9.2 mph - N/A   Clear
2:13 AM 44.6 °F 39.7 °F 35.6 °F 71% 29.95 in 10.0 mi SSE 9.2 mph - N/A   Clear
2:34 AM 44.6 °F 39.7 °F 35.6 °F 71% 29.94 in 10.0 mi SE 9.2 mph - N/A   Clear
2:53 AM 44.6 °F 39.2 °F 35.6 °F 71% 29.94 in 10.0 mi SE 10.4 mph - N/A   Clear
3:13 AM 42.8 °F 37.5 °F 35.6 °F 76% 29.95 in 10.0 mi SE 9.2 mph - N/A   Clear
3:34 AM 42.8 °F 37.5 °F 35.6 °F 76% 29.94 in 10.0 mi SE 9.2 mph - N/A   Clear
3:54 AM 42.8 °F 38.0 °F 35.6 °F 76% 29.94 in 10.0 mi SE 8.1 mph - N/A   Clear
4:13 AM 41.0 °F 36.4 °F 33.8 °F 76% 29.94 in 10.0 mi ESE 6.9 mph - N/A   Clear
4:34 AM 41.0 °F 37.1 °F 35.6 °F 81% 29.94 in 10.0 mi SE 5.8 mph - N/A   Clear
4:53 AM 39.2 °F 34.2 °F 33.8 °F 81% 29.95 in 10.0 mi SE 6.9 mph - N/A   Clear
5:14 AM 41.0 °F 37.1 °F 35.6 °F 81% 29.95 in 10.0 mi SE 5.8 mph - N/A   Scattered Clouds
5:33 AM 41.0 °F 36.4 °F 35.6 °F 81% 29.96 in 10.0 mi SE 6.9 mph - N/A   Scattered Clouds
5:53 AM 41.0 °F 36.4 °F 35.6 °F 81% 29.96 in 10.0 mi SSE 6.9 mph - N/A   Clear
6:13 AM 41.0 °F 36.4 °F 35.6 °F 81% 29.96 in 10.0 mi SE 6.9 mph - N/A   Clear
6:33 AM 41.0 °F 36.4 °F 35.6 °F 81% 29.96 in 10.0 mi SSE 6.9 mph - N/A   Clear
6:53 AM 39.2 °F 35.0 °F 35.6 °F 87% 29.96 in 10.0 mi SE 5.8 mph - N/A   Clear
7:33 AM 39.2 °F 37.0 °F 33.8 °F 81% 29.97 in 10.0 mi ESE 3.5 mph - N/A   Clear
7:53 AM 37.4 °F 33.8 °F 33.8 °F 87% 29.98 in 10.0 mi SE 4.6 mph - N/A   Clear
8:13 AM 39.2 °F 35.0 °F 35.6 °F 87% 29.98 in 10.0 mi SE 5.8 mph - N/A   Clear
8:33 AM 41.0 °F 38.0 °F 35.6 °F 81% 29.98 in 10.0 mi SSE 4.6 mph - N/A   Clear
8:53 AM 42.8 °F 40.1 °F 35.6 °F 76% 29.98 in 10.0 mi South 4.6 mph - N/A   Clear
9:13 AM 44.6 °F 42.2 °F 37.4 °F 76% 29.99 in 10.0 mi SSW 4.6 mph - N/A   Clear
9:53 AM 48.2 °F - 37.4 °F 66% 30.01 in 10.0 mi SW 8.1 mph - N/A   Clear
10:13 AM 48.2 °F - 37.4 °F 66% 30.00 in 10.0 mi WSW 5.8 mph - N/A   Clear
10:34 AM 50.0 °F - 37.4 °F 62% 30.00 in 10.0 mi West 8.1 mph - N/A   Clear
10:53 AM 50.0 °F - 37.4 °F 62% 30.01 in 10.0 mi West 8.1 mph - N/A   Clear
11:13 AM 51.8 °F - 37.4 °F 58% 30.01 in 10.0 mi WNW 6.9 mph - N/A   Clear
11:33 AM 51.8 °F - 37.4 °F 58% 29.99 in 10.0 mi NW 8.1 mph - N/A   Clear
11:53 AM 53.6 °F - 37.4 °F 54% 30.00 in 10.0 mi NNW 5.8 mph - N/A   Clear
12:14 PM 53.6 °F - 37.4 °F 54% 30.00 in 10.0 mi NW 5.8 mph - N/A   Clear
12:34 PM 53.6 °F - 37.4 °F 54% 29.99 in 10.0 mi North 5.8 mph - N/A   Clear
12:54 PM 55.4 °F - 37.4 °F 51% 29.99 in 10.0 mi Calm Calm - N/A   Clear
1:14 PM 55.4 °F - 37.4 °F 51% 30.00 in 10.0 mi NW 4.6 mph - N/A   Clear
1:33 PM 57.2 °F - 39.2 °F 51% 30.00 in 10.0 mi NW 10.4 mph - N/A   Clear
1:53 PM 55.4 °F - 39.2 °F 54% 30.00 in 10.0 mi NW 10.4 mph - N/A   Clear
2:13 PM 55.4 °F - 37.4 °F 51% 30.01 in 10.0 mi NW 10.4 mph - N/A   Clear
2:33 PM 55.4 °F - 39.2 °F 54% 30.01 in 10.0 mi NW 10.4 mph - N/A   Clear
2:53 PM 55.4 °F - 39.2 °F 54% 30.02 in 10.0 mi NNW 9.2 mph - N/A   Clear
3:14 PM 55.4 °F - 39.2 °F 54% 30.02 in 10.0 mi NNW 12.7 mph - N/A   Clear
3:53 PM 53.6 °F - 39.2 °F 58% 30.05 in 10.0 mi NNW 10.4 mph - N/A   Clear
4:13 PM 51.8 °F - 37.4 °F 58% 30.05 in 10.0 mi NNW 10.4 mph - N/A   Clear
4:33 PM 51.8 °F - 37.4 °F 58% 30.06 in 10.0 mi NNW 9.2 mph - N/A   Clear
4:53 PM 48.2 °F - 37.4 °F 66% 30.07 in 10.0 mi NNW 6.9 mph - N/A   Clear
5:13 PM 46.4 °F 41.9 °F 37.4 °F 71% 30.07 in 10.0 mi NNW 9.2 mph - N/A   Clear
5:34 PM 44.6 °F 40.2 °F 35.6 °F 71% 30.08 in 10.0 mi NNW 8.1 mph - N/A   Clear
5:54 PM 42.8 °F 38.6 °F 35.6 °F 76% 30.08 in 10.0 mi NNW 6.9 mph - N/A   Clear
6:13 PM 42.8 °F 38.6 °F 35.6 °F 76% 30.08 in 10.0 mi NNW 6.9 mph - N/A   Clear
6:33 PM 44.6 °F 41.4 °F 35.6 °F 71% 30.09 in 10.0 mi NW 5.8 mph - N/A   Clear
6:53 PM 42.8 °F 38.6 °F 35.6 °F 76% 30.09 in 10.0 mi NNW 6.9 mph - N/A   Clear
7:13 PM 41.0 °F 38.0 °F 33.8 °F 76% 30.10 in 10.0 mi NNW 4.6 mph - N/A   Clear
7:33 PM 39.2 °F 35.0 °F 33.8 °F 81% 30.10 in 10.0 mi NNW 5.8 mph - N/A   Clear
7:54 PM 37.4 °F 32.8 °F 33.8 °F 87% 30.11 in 10.0 mi NW 5.8 mph - N/A   Clear
8:14 PM 37.4 °F 32.1 °F 33.8 °F 87% 30.11 in 10.0 mi NW 6.9 mph - N/A   Clear
8:33 PM 35.6 °F - 32.0 °F 87% 30.11 in 10.0 mi Calm Calm - N/A   Clear
8:53 PM 37.4 °F - 32.0 °F 81% 30.12 in 10.0 mi Calm Calm - N/A   Clear
9:14 PM 35.6 °F - 32.0 °F 87% 30.13 in 10.0 mi North - - N/A   Clear
9:33 PM 35.6 °F 29.2 °F 32.0 °F 87% 30.13 in 10.0 mi NW 8.1 mph - N/A   Clear
9:53 PM 33.8 °F 27.7 °F 30.2 °F 87% 30.13 in 7.0 mi NW 6.9 mph - N/A   Clear
10:13 PM 32.0 °F 24.8 °F 32.0 °F 100% 30.13 in 7.0 mi NW 8.1 mph - N/A   Clear
10:33 PM 33.8 °F 30.8 °F 30.2 °F 87% 30.13 in 7.0 mi NNW 3.5 mph - N/A   Clear
10:54 PM 35.6 °F 30.7 °F 32.0 °F 87% 30.12 in 7.0 mi NNW 5.8 mph - N/A   Clear
11:13 PM 33.8 °F - 30.2 °F 87% 30.12 in 7.0 mi Calm Calm - N/A   Clear
11:33 PM 32.0 °F 25.6 °F 28.4 °F 87% 30.13 in 7.0 mi WNW 6.9 mph - N/A   Clear
11:53 PM 30.2 °F 24.3 °F 28.4 °F 93% 30.13 in - WNW 5.8 mph - N/A   Clear